COSMOS 1589

Satellite information

Favourite Embed

Satellite Type and Status

PAYLOADIN ORBIT

Key statistics

Satellite COSMOS 1589 at a glance.

Uptime

15006

Days in orbit

Revolutions

≈ 12.4

Per day

Orbit

LEO

Low Earth Orbit

Inclination

82.6

Latest

Satellite identification and parameters

Extended collection of information and parameters for COSMOS 1589.

Object identification

Identified? True

Debris? False

Object name: COSMOS 1589

International designator: 1984-084A

Object number (NORAD): 15171

Object ID (CCSDS): 15171

Country: COMMONWEALTH OF INDEPENDENT STATES (CIS)

Current information (Y/N): Y

RCS size: LARGE

Orbital parameters

Period: 115.919 minutes

Inclination: 82.602 deg

SMA: 7875.216 km

Apoapsis: 1500.941 km

Periapsis: 1493.22 km

RAAN: 328.7795 deg

Eccentricy: 0.00049024

Argument of periapsis: 288.1183 deg

Mean anomaly: 190.0417 deg

Mean motion: 12.42250197 rev/day

Mean motion (dot): 0.00000031 rev/day2

B* drag term: 0.00015571123 1/REarth

Two-line elements (TLE)

Creation date: Sept. 8, 2025, 3:16 a.m.

Reference frame: TEME

Reference center: EARTH

Epoch: Sept. 7, 2025, 6:10 p.m. UTC

TLE line 0: 0 COSMOS 1589

TLE line 1: 1 15171U 84084A 25250.75731345 .00000031 00000-0 15571-3 0 9994

TLE line 2: 2 15171 82.6020 328.7795 0004902 288.1183 190.0417 12.42250197862799

Live tracking on map

Real-time ground track for satellite COSMOS 1589.

In-orbit conjunctions

A list of the most updated potential collisions computed for object COSMOS 1589.

Target Orbit TCA Probability of collision Miss distance Type
ARIANE 44L+ DEB (SPELDA) MEO 2025-04-19 13:08:41 0.0001377023 758.0 (m) DEBRIS

Associated space launch

A satellite for the GEO-IK geodetic system

COSMOS 1589 was lifted into orbit during the mission ‘Tsiklon-3 | Geo-IK 5’, on board a Tsiklon-3 space rocket.

The launch took place on Aug. 8, 1984, 12:08 p.m. from 32/2.

For more information about the launch, click the button.

Launch to space Tsiklon-3 | Geo-IK 5
Tsiklon-3 | Geo-IK 5

Agency: N/A

Status: Launch Successful

Launch date: Aug. 8, 1984, 12:08 p.m. UTC

Rocket: Tsiklon-3

Launch pad: 32/2

Location: Plesetsk Cosmodrome, Russian Federation

...

Latest news about this satellite

There are no fresh news available about this satellite. Check back as we update our databases every day.


Newsletter sign-up

Weekly statistics, charts and insights to help you stay on top of the space industry.